STARLINK-11630, 63111

Orbit data source: Space-Track

STARLINK-11630, 63111 is a payload satellite owned by SpaceX/Seattle (US) in LEO that was launched on Thu, 27 Feb 2025 UTC via an FALCON 9 launch vehicle from the Air Force Eastern Test Range (AFETR). Payload-class satellites include a variety of spacecraft equipped with specific instruments for various scientific and technological missions. These include communications satellites like Starlink; space stations such as the ISS; scientific satellites like the Hubble; Earth observation satellites from companies like Planet Labs, Umbra, and HawkEye 360; GPS; miniature CubeSats for education and research; and military/defense satellites.

Loading next visibility...
Identifier
63111, 2025-039H
Orbit
LEO
Country
Flag of USUS
Related business
Manufacturer
SpaceX/Seattle
Mission
Operational Commercial Communications
Bus & Motor
STARLINK V2MD, Unknown motor
Mass
960 kg wet, ~910 kg dry
Launch date (UTC)
2025-02-27 (7 months ago)
Launch vehicle
FALCON 9
Launch site
Air Force Eastern Test Range (AFETR)
Object type
Payload
Rocket body
Debris
Shape & HBR
Box + 2 Pan, 14.5 m
Radar Cross Section
36.964 m², Large (>1 m²)

Expand to show TLE details & history
Last TLE update: 12 hours ago

TLE from 12 hours ago
0 STARLINK-11630
1 63111U 25039H   25261.19760308  .00265973  00000-0  19902-2 0  9996
2 63111  42.9999 196.8634 0003031 263.6497  96.4026 15.71081905 32488
Epoch: 2025-09-18T04:44Z
TLE epoch observation values (Epoch: 2025-09-18T04:44:32.906Z)
Latitude
0.00003°
Longitude
128.36367°
Altitude
355.803 km
Speed
7.697 km/s
True Right ascension
13h 07m 27s
True Declination
0° 00' 00"
Sunlit
Object was in daylight at epoch
Visualization orbit readout
Latitude
Unknown
Longitude
Unknown
Altitude
Unknown
Speed
Unknown
Apparent Right ascension
Unknown
Apparent Declination
Unknown
Sunlit
N/A
Visualization observer readout
Local Sidereal Time
09:18:38
Azimuth
Unknown
Elevation
Unknown
Doppler factor
Unknown
Orbital elements
Apogee altitude
359.827 km
Perigee altitude
355.744 km
Semi-major axis
6,735.923 km
Eccentricity
0.0003
Inclination
42.9999°
RAAN
196.8634°
Arg. of periapsis
263.6497°
True anomaly
96.43711°
Mean anomaly
96.4026°
Eccentric anomaly
96.41986°
Mean motion
3.92598 °/min
Orbital period
91.7 mins
BSTAR
0.0019902
Loading maneuver chart data...
Computing Atmospheric mass density...
Loading historical data...
Loading historical data...
Loading historical data...
Loading historical data...
Loading historical data...
Loading historical data...
Loading historical data...

Documentation

Showing up to 5 results
|